Hourly Weather Nanning

Today, 14 July, Tuesday

Time Temperature Precipitation Wind Pressure Humidity
00:00 +29°C° 0 mm 3 mps 748 mmHg 80%
01:00 +28°C° 0 mm 3 mps 748 mmHg 81%
02:00 +28°C° 0 mm 2 mps 747 mmHg 83%
03:00 +28°C° 0 mm 2 mps 747 mmHg 86%
04:00 +27°C° 0 mm 1 mps 747 mmHg 88%
05:00 +28°C° 0 mm 1 mps 747 mmHg 87%
06:00 +29°C° 0 mm 2 mps 747 mmHg 85%
07:00 +30°C° 0 mm 1 mps 748 mmHg 83%
08:00 +31°C° 0 mm 1 mps 748 mmHg 75%
09:00 +33°C° 0 mm 1 mps 748 mmHg 66%
10:00 +34°C° 0 mm 1 mps 748 mmHg 58%
11:00 +35°C° 0 mm 1 mps 748 mmHg 55%
12:00 +37°C° 0 mm 2 mps 747 mmHg 52%
13:00 +37°C° 0 mm 1 mps 747 mmHg 48%
14:00 +38°C° 0 mm 2 mps 746 mmHg 48%
15:00 +38°C° 0 mm 2 mps 745 mmHg 49%
16:00 +38°C° 0 mm 3 mps 745 mmHg 49%
17:00 +36°C° 0 mm 3 mps 745 mmHg 56%
18:00 +34°C° 0 mm 4 mps 745 mmHg 64%
19:00 +33°C° 0 mm 3 mps 745 mmHg 73%
20:00 +31°C° 0 mm 3 mps 746 mmHg 75%
21:00 +31°C° 0 mm 3 mps 746 mmHg 77%
22:00 +30°C° 0 mm 3 mps 747 mmHg 79%
23:00 +30°C° 0.1 mm 3 mps 747 mmHg 81%

Tomorrow, 15 July, Wednesday

Time Temperature Precipitation Wind Pressure Humidity
00:00 +29°C° 0.1 mm 2 mps 746 mmHg 82%
01:00 +29°C° 0.1 mm 2 mps 746 mmHg 84%
02:00 +29°C° 0.1 mm 2 mps 746 mmHg 85%
03:00 +28°C° 0.1 mm 1 mps 746 mmHg 86%
04:00 +28°C° 0.1 mm 1 mps 746 mmHg 87%
05:00 +29°C° 0 mm 1 mps 746 mmHg 85%
06:00 +29°C° 0 mm 1 mps 746 mmHg 83%
07:00 +30°C° 0 mm 1 mps 746 mmHg 80%
08:00 +32°C° 0 mm 1 mps 747 mmHg 73%
09:00 +33°C° 0 mm 1 mps 747 mmHg 66%
10:00 +36°C° 0 mm 2 mps 747 mmHg 58%
11:00 +37°C° 0 mm 2 mps 746 mmHg 54%
12:00 +38°C° 0 mm 2 mps 746 mmHg 50%
13:00 +39°C° 0 mm 2 mps 745 mmHg 45%
14:00 +38°C° 0 mm 3 mps 744 mmHg 48%
15:00 +39°C° 0 mm 5 mps 744 mmHg 51%
16:00 +39°C° 0 mm 6 mps 743 mmHg 53%
17:00 +36°C° 0 mm 6 mps 743 mmHg 60%
18:00 +34°C° 0 mm 5 mps 744 mmHg 67%
19:00 +32°C° 0 mm 5 mps 744 mmHg 74%
20:00 +32°C° 0 mm 5 mps 744 mmHg 76%
21:00 +30°C° 0 mm 4 mps 745 mmHg 78%
22:00 +30°C° 0 mm 4 mps 745 mmHg 80%
23:00 +29°C° 0 mm 3 mps 745 mmHg 82%

Day after tomorrow, 16 July, Thursday

Time Temperature Precipitation Wind Pressure Humidity
00:00 +29°C° 0 mm 3 mps 745 mmHg 84%
01:00 +29°C° 0 mm 3 mps 745 mmHg 85%
02:00 +28°C° 0 mm 2 mps 745 mmHg 87%
03:00 +28°C° 0 mm 2 mps 745 mmHg 89%
04:00 +28°C° 0 mm 2 mps 745 mmHg 91%
05:00 +28°C° 0 mm 2 mps 745 mmHg 88%
06:00 +29°C° 0 mm 2 mps 746 mmHg 85%
07:00 +30°C° 0 mm 2 mps 746 mmHg 82%
08:00 +31°C° 0 mm 2 mps 746 mmHg 76%
09:00 +34°C° 0 mm 3 mps 746 mmHg 69%
10:00 +35°C° 0 mm 4 mps 746 mmHg 63%
11:00 +36°C° 0.8 mm 4 mps 745 mmHg 62%
12:00 +36°C° 0.8 mm 4 mps 745 mmHg 61%
13:00 +37°C° 0.8 mm 4 mps 744 mmHg 61%
14:00 +37°C° 0.4 mm 5 mps 743 mmHg 61%
15:00 +37°C° 0.4 mm 5 mps 743 mmHg 61%
16:00 +38°C° 0.4 mm 6 mps 742 mmHg 61%
17:00 +35°C° 0 mm 5 mps 743 mmHg 65%
18:00 +34°C° 0 mm 5 mps 743 mmHg 69%
19:00 +32°C° 0 mm 5 mps 743 mmHg 73%
20:00 +32°C° 0 mm 4 mps 744 mmHg 76%
21:00 +30°C° 0 mm 4 mps 745 mmHg 79%
22:00 +30°C° 0 mm 3 mps 745 mmHg 82%
23:00 +29°C° 0 mm 3 mps 745 mmHg 84%

17 July, Friday

Time Temperature Precipitation Wind Pressure Humidity
00:00 +29°C° 0 mm 3 mps 745 mmHg 85%
01:00 +29°C° 0 mm 3 mps 745 mmHg 87%
02:00 +29°C° 0.1 mm 2 mps 745 mmHg 87%
03:00 +29°C° 0.1 mm 2 mps 744 mmHg 88%
04:00 +28°C° 0.1 mm 1 mps 744 mmHg 89%
05:00 +29°C° 0 mm 2 mps 745 mmHg 86%
06:00 +30°C° 0 mm 3 mps 745 mmHg 84%
07:00 +32°C° 0 mm 4 mps 745 mmHg 81%
08:00 +33°C° 0 mm 5 mps 745 mmHg 74%
09:00 +35°C° 0 mm 6 mps 745 mmHg 68%
10:00 +36°C° 0 mm 7 mps 745 mmHg 61%
11:00 +38°C° 0.1 mm 7 mps 745 mmHg 59%
12:00 +39°C° 0.1 mm 7 mps 744 mmHg 56%
13:00 +39°C° 0.1 mm 7 mps 744 mmHg 53%
14:00 +39°C° 0 mm 7 mps 743 mmHg 55%
15:00 +39°C° 0 mm 7 mps 743 mmHg 56%
16:00 +38°C° 0 mm 7 mps 742 mmHg 57%
17:00 +36°C° 0 mm 7 mps 743 mmHg 62%
18:00 +34°C° 0 mm 6 mps 743 mmHg 66%
19:00 +33°C° 0 mm 6 mps 743 mmHg 71%
20:00 +32°C° 0 mm 6 mps 744 mmHg 72%
21:00 +32°C° 0 mm 5 mps 744 mmHg 73%
22:00 +30°C° 0 mm 5 mps 745 mmHg 75%
23:00 +30°C° 0 mm 4 mps 745 mmHg 76%

18 July, Saturday

Time Temperature Precipitation Wind Pressure Humidity
00:00 +30°C° 0 mm 4 mps 744 mmHg 78%
01:00 +30°C° 0 mm 3 mps 744 mmHg 80%
02:00 +30°C° 0 mm 4 mps 744 mmHg 79%
03:00 +30°C° 0 mm 4 mps 744 mmHg 79%
04:00 +30°C° 0 mm 4 mps 744 mmHg 79%
05:00 +30°C° 0 mm 4 mps 744 mmHg 79%
06:00 +32°C° 0 mm 4 mps 745 mmHg 79%
07:00 +32°C° 0 mm 4 mps 745 mmHg 80%
08:00 +33°C° 0 mm 5 mps 745 mmHg 74%
09:00 +35°C° 0 mm 5 mps 745 mmHg 69%
10:00 +36°C° 0 mm 5 mps 745 mmHg 64%
11:00 +37°C° 0.1 mm 5 mps 744 mmHg 60%
12:00 +39°C° 0.1 mm 5 mps 744 mmHg 57%
13:00 +40°C° 0.1 mm 5 mps 743 mmHg 53%
14:00 +39°C° 0 mm 5 mps 742 mmHg 55%
15:00 +39°C° 0 mm 6 mps 742 mmHg 56%
16:00 +38°C° 0 mm 6 mps 741 mmHg 58%
17:00 +36°C° 0.1 mm 6 mps 742 mmHg 62%
18:00 +34°C° 0.1 mm 6 mps 742 mmHg 66%
19:00 +33°C° 0.1 mm 6 mps 742 mmHg 71%
20:00 +32°C° 0.4 mm 6 mps 743 mmHg 73%
21:00 +32°C° 0.4 mm 5 mps 743 mmHg 75%
22:00 +30°C° 0.4 mm 5 mps 744 mmHg 77%
23:00 +30°C° 1.3 mm 4 mps 744 mmHg 79%

19 July, Sunday

Time Temperature Precipitation Wind Pressure Humidity
00:00 +30°C° 1.3 mm 3 mps 744 mmHg 82%
01:00 +30°C° 1.3 mm 1 mps 743 mmHg 84%
02:00 +29°C° 2.8 mm 2 mps 743 mmHg 86%
03:00 +29°C° 2.8 mm 2 mps 743 mmHg 88%
04:00 +28°C° 2.8 mm 2 mps 743 mmHg 91%
05:00 +29°C° 1.4 mm 1 mps 743 mmHg 90%
06:00 +29°C° 1.4 mm 1 mps 743 mmHg 89%
07:00 +29°C° 1.4 mm 1 mps 743 mmHg 88%
08:00 +30°C° 1.1 mm 1 mps 743 mmHg 83%
09:00 +31°C° 1.1 mm 1 mps 744 mmHg 79%
10:00 +32°C° 1.1 mm 2 mps 744 mmHg 75%
11:00 +32°C° 2.2 mm 2 mps 743 mmHg 77%
12:00 +32°C° 2.2 mm 2 mps 743 mmHg 79%
13:00 +32°C° 2.2 mm 2 mps 742 mmHg 80%
14:00 +31°C° 2.2 mm 2 mps 742 mmHg 83%
15:00 +30°C° 2.2 mm 2 mps 742 mmHg 86%
16:00 +29°C° 2.2 mm 2 mps 742 mmHg 89%
17:00 +29°C° 1.5 mm 1 mps 743 mmHg 90%
18:00 +29°C° 1.5 mm 1 mps 743 mmHg 91%
19:00 +28°C° 1.5 mm 1 mps 743 mmHg 92%
20:00 +28°C° 0.5 mm 1 mps 744 mmHg 91%
21:00 +28°C° 0.5 mm 1 mps 744 mmHg 91%
22:00 +27°C° 0.5 mm 1 mps 745 mmHg 90%
23:00 +27°C° 0.8 mm 1 mps 744 mmHg 91%
Show more